Temp
-13 -13 -13 -13 -13 -13 -13 -12 -12 -12 -12 -12 -12 -12 -12 -13 -13 -13 -13 -14 -14 -15 -15 -16 -16 -16 -16 -16 -16 -16 -16 -16 -15 -15 -15 -15 -15 -15 -15 -15 -15 -15
-13 -13 -13 -13 -13 -13 -12 -12 -12 -12 -12 -12 -12 -12 -13 -13 -13 -14 -14 -15 -15 -16 -16 -17 -17 -17 -17 -17 -16 -16 -16 -17 -16 -16 -15 -15 -15 -15 -15 -15 -15 -15
-13 -13 -13 -13 -13 -13 -12 -12 -12 -13 -13 -13 -13 -13 -13 -13 -14 -15 -15 -16 -17 -17 -18 -18 -18 -18 -18 -18 -17 -17 -17 -17 -17 -16 -16 -15 -15 -15 -15 -15 -15 -15
-13 -13 -13 -13 -13 -13 -13 -13 -13 -13 -13 -13 -13 -13 -14 -14 -15 -16 -17 -17 -18 -18 -18 -19 -19 -19 -18 -18 -18 -18 -18 -18 -18 -17 -16 -16 -15 -15 -15 -15 -15 -16
-13 -13 -13 -13 -13 -13 -13 -13 -13 -13 -13 -13 -13 -14 -14 -15 -16 -17 -18 -18 -19 -19 -19 -19 -19 -19 -19 -19 -19 -19 -19 -18 -18 -17 -16 -16 -16 -16 -16 -16 -16 -16
-13 -13 -13 -13 -13 -13 -13 -13 -13 -13 -13 -13 -14 -14 -15 -16 -17 -18 -19 -19 -19 -19 -19 -20 -20 -20 -20 -19 -19 -19 -19 -19 -19 -18 -17 -16 -16 -16 -16 -16 -16 -16
-13 -13 -13 -13 -13 -13 -13 -13 -13 -13 -13 -14 -14 -15 -16 -17 -18 -19 -19 -19 -19 -20 -20 -20 -20 -20 -20 -20 -20 -19 -19 -19 -19 -18 -18 -17 -17 -16 -16 -16 -16 -16
-13 -13 -13 -13 -13 -13 -13 -13 -13 -13 -13 -14 -14 -16 -17 -18 -19 -19 -19 -20 -20 -20 -20 -20 -20 -20 -20 -20 -20 -20 -20 -19 -19 -19 -18 -17 -17 -17 -16 -16 -16 -16
-13 -13 -13 -13 -13 -13 -13 -13 -13 -13 -14 -14 -15 -16 -17 -19 -19 -20 -20 -20 -20 -20 -21 -21 -21 -21 -20 -20 -20 -20 -20 -20 -19 -19 -18 -18 -17 -17 -17 -16 -16 -17
-13 -13 -13 -13 -13 -13 -13 -13 -13 -14 -14 -14 -15 -17 -18 -19 -20 -20 -20 -20 -20 -21 -21 -21 -21 -21 -21 -20 -20 -20 -20 -20 -19 -19 -18 -18 -17 -17 -17 -17 -17 -17
-14 -14 -14 -14 -14 -14 -13 -14 -14 -14 -14 -15 -16 -17 -19 -20 -20 -20 -20 -20 -21 -21 -21 -21 -21 -21 -21 -21 -20 -20 -20 -20 -19 -19 -19 -18 -18 -18 -18 -17 -17 -17
-14 -14 -14 -14 -14 -14 -14 -14 -14 -14 -14 -15 -16 -18 -19 -20 -20 -20 -20 -20 -21 -21 -21 -21 -21 -21 -21 -21 -21 -20 -20 -20 -19 -19 -19 -19 -18 -18 -18 -17 -17 -17
-14 -14 -14 -14 -14 -14 -14 -14 -14 -14 -15 -16 -17 -18 -20 -20 -20 -20 -20 -20 -21 -21 -21 -21 -21 -21 -21 -21 -21 -20 -20 -20 -20 -19 -19 -19 -19 -18 -18 -17 -17 -17
-14 -14 -14 -14 -14 -14 -14 -14 -14 -14 -15 -16 -17 -19 -20 -20 -21 -21 -20 -20 -21 -21 -21 -21 -21 -21 -21 -21 -21 -20 -20 -20 -20 -20 -19 -19 -19 -18 -18 -18 -17 -17
-14 -14 -14 -14 -14 -14 -14 -14 -14 -15 -15 -16 -17 -19 -20 -21 -21 -21 -21 -21 -21 -21 -21 -21 -21 -21 -21 -21 -21 -21 -20 -20 -20 -19 -19 -19 -19 -18 -18 -18 -17 -17
-14 -14 -14 -14 -14 -14 -14 -14 -14 -15 -15 -16 -17 -19 -20 -21 -21 -21 -21 -21 -21 -21 -21 -22 -21 -21 -21 -21 -21 -21 -21 -20 -20 -20 -20 -19 -19 -19 -18 -18 -17 -17
-15 -15 -15 -14 -14 -14 -14 -15 -15 -15 -15 -16 -17 -19 -20 -21 -21 -21 -21 -21 -21 -21 -21 -22 -22 -21 -21 -21 -21 -21 -21 -21 -20 -20 -20 -19 -19 -19 -18 -18 -17 -17
-15 -15 -15 -15 -15 -15 -15 -15 -15 -15 -15 -16 -17 -18 -20 -20 -21 -21 -21 -21 -21 -21 -21 -22 -22 -22 -21 -21 -21 -21 -21 -21 -21 -20 -20 -19 -19 -19 -18 -18 -18 -17
-15 -15 -15 -15 -15 -15 -15 -15 -15 -15 -16 -16 -17 -18 -19 -20 -21 -21 -21 -21 -21 -21 -21 -22 -22 -22 -21 -21 -21 -21 -21 -21 -21 -20 -20 -19 -19 -19 -18 -18 -18 -17
-15 -15 -15 -15 -15 -15 -15 -15 -15 -15 -16 -16 -17 -18 -19 -20 -21 -21 -21 -21 -21 -21 -21 -22 -22 -22 -22 -21 -21 -21 -21 -21 -21 -20 -19 -19 -19 -19 -18 -18 -18 -18
-15 -15 -15 -15 -15 -15 -15 -15 -15 -16 -16 -16 -17 -17 -18 -20 -20 -21 -21 -21 -21 -21 -21 -22 -22 -22 -22 -21 -21 -21 -21 -21 -21 -20 -19 -19 -19 -19 -18 -18 -18 -18
-15 -15 -15 -15 -15 -15 -15 -15 -16 -16 -16 -16 -16 -17 -18 -19 -20 -21 -21 -21 -21 -21 -21 -22 -22 -22 -22 -21 -21 -21 -21 -21 -21 -20 -20 -19 -19 -19 -18 -18 -18 -18
-15 -16 -15 -15 -15 -16 -16 -16 -16 -16 -16 -16 -16 -17 -18 -19 -20 -21 -21 -21 -21 -21 -21 -22 -22 -22 -22 -22 -21 -21 -21 -21 -20 -20 -19 -19 -19 -19 -18 -18 -18 -18
-16 -15 -15 -15 -16 -16 -16 -16 -16 -16 -16 -16 -16 -17 -17 -18 -19 -20 -21 -21 -21 -21 -21 -22 -22 -22 -22 -22 -21 -21 -21 -21 -20 -20 -19 -19 -19 -19 -19 -18 -18 -18
-15 -15 -16 -16 -16 -16 -16 -16 -16 -16 -16 -16 -16 -16 -17 -18 -19 -20 -20 -21 -21 -21 -21 -22 -22 -22 -22 -22 -21 -21 -21 -21 -21 -20 -19 -19 -19 -19 -19 -18 -18 -18
-15 -16 -16 -16 -16 -16 -16 -16 -16 -16 -16 -16 -16 -16 -16 -17 -18 -19 -20 -21 -21 -21 -21 -22 -22 -22 -22 -22 -21 -21 -21 -21 -21 -20 -19 -19 -19 -19 -18 -18 -19 -18
Height
5799 5797 5794 5792 5789 5786 5783 5780 5776 5773 5769 5765 5760 5755 5751 5746 5740 5734 5729 5724 5719 5715 5712 5709 5707 5705 5703 5702 5702 5702 5702 5703 5704 5705 5705 5706 5707 5706 5706 5706 5706 5707
5798 5795 5793 5790 5787 5784 5781 5777 5773 5769 5764 5759 5754 5748 5743 5737 5731 5724 5718 5712 5708 5704 5701 5699 5697 5695 5693 5692 5692 5692 5693 5694 5696 5698 5699 5700 5701 5700 5700 5700 5701 5702
5797 5794 5791 5789 5785 5782 5778 5774 5769 5765 5759 5754 5748 5741 5735 5728 5721 5714 5708 5702 5698 5694 5692 5689 5687 5685 5684 5682 5682 5682 5684 5685 5688 5691 5692 5693 5695 5695 5694 5695 5696 5697
5796 5793 5790 5786 5783 5779 5775 5771 5766 5760 5755 5749 5742 5735 5727 5720 5712 5706 5700 5694 5690 5686 5683 5680 5678 5677 5675 5673 5673 5673 5675 5677 5680 5682 5684 5686 5688 5688 5688 5689 5691 5692
5794 5791 5788 5784 5780 5776 5772 5767 5762 5756 5750 5743 5736 5728 5719 5711 5704 5698 5693 5688 5683 5679 5676 5673 5671 5669 5668 5666 5665 5665 5666 5669 5672 5675 5676 5679 5680 5681 5682 5684 5686 5687
5792 5789 5785 5781 5777 5773 5769 5764 5758 5752 5745 5738 5729 5721 5712 5704 5698 5692 5688 5683 5677 5673 5670 5667 5665 5664 5662 5661 5659 5659 5659 5661 5664 5668 5670 5672 5675 5676 5677 5679 5680 5682
5790 5786 5783 5779 5775 5770 5766 5761 5754 5748 5740 5732 5724 5715 5707 5699 5693 5688 5683 5678 5673 5668 5664 5662 5660 5659 5657 5655 5654 5653 5653 5653 5657 5661 5664 5666 5669 5671 5672 5673 5676 5677
5788 5784 5781 5777 5773 5769 5763 5758 5751 5745 5737 5728 5719 5710 5702 5695 5689 5684 5679 5674 5668 5664 5660 5657 5655 5653 5651 5650 5648 5647 5647 5648 5650 5655 5658 5660 5664 5666 5666 5668 5671 5672
5787 5783 5780 5776 5771 5766 5761 5755 5748 5741 5733 5724 5714 5706 5698 5691 5685 5681 5676 5670 5665 5660 5656 5653 5650 5648 5646 5645 5643 5642 5642 5643 5644 5648 5652 5654 5658 5660 5661 5663 5666 5668
5785 5782 5778 5773 5769 5763 5758 5751 5744 5737 5728 5719 5710 5701 5694 5687 5682 5678 5672 5667 5662 5657 5654 5650 5647 5644 5642 5641 5639 5638 5638 5639 5640 5643 5646 5649 5652 5654 5655 5658 5662 5664
5784 5780 5776 5771 5765 5760 5754 5748 5741 5733 5724 5715 5706 5698 5691 5685 5680 5675 5670 5664 5659 5654 5651 5647 5644 5641 5639 5637 5636 5635 5635 5635 5636 5639 5642 5644 5646 5649 5650 5653 5658 5661
5782 5778 5773 5768 5763 5757 5752 5745 5738 5730 5721 5711 5702 5695 5688 5682 5677 5672 5668 5662 5656 5651 5647 5644 5641 5639 5637 5635 5633 5632 5632 5632 5633 5636 5639 5640 5642 5645 5647 5649 5653 5657
5780 5775 5771 5765 5760 5755 5749 5742 5735 5726 5717 5708 5699 5691 5685 5680 5675 5670 5665 5660 5655 5649 5645 5641 5638 5636 5634 5632 5631 5630 5629 5629 5630 5633 5635 5636 5638 5642 5644 5645 5648 5652
5777 5773 5768 5763 5758 5752 5746 5739 5731 5723 5714 5705 5696 5689 5683 5677 5673 5668 5663 5658 5652 5647 5643 5639 5636 5634 5632 5630 5628 5628 5627 5627 5629 5632 5633 5633 5636 5640 5641 5641 5645 5649
5775 5771 5766 5761 5755 5749 5743 5736 5728 5720 5711 5702 5694 5687 5680 5675 5670 5665 5661 5656 5651 5645 5641 5637 5634 5632 5630 5628 5627 5626 5625 5626 5628 5630 5631 5632 5634 5637 5638 5639 5642 5646
5773 5768 5764 5758 5753 5747 5741 5734 5726 5718 5709 5700 5692 5685 5679 5673 5668 5663 5659 5654 5649 5644 5639 5636 5633 5630 5628 5626 5625 5624 5623 5624 5625 5626 5628 5630 5632 5634 5636 5638 5641 5644
5771 5766 5761 5756 5750 5745 5738 5732 5724 5716 5707 5699 5691 5683 5677 5671 5666 5662 5657 5653 5648 5643 5638 5634 5631 5629 5626 5625 5624 5623 5622 5622 5623 5624 5626 5629 5631 5633 5635 5637 5640 5642
5769 5764 5759 5754 5748 5743 5737 5730 5723 5715 5706 5698 5689 5682 5676 5670 5665 5660 5656 5652 5647 5641 5637 5633 5630 5627 5625 5623 5622 5621 5621 5621 5621 5622 5625 5629 5631 5633 5635 5637 5639 5641
5767 5762 5757 5752 5747 5741 5735 5729 5722 5714 5706 5697 5689 5681 5674 5668 5663 5658 5654 5650 5646 5641 5636 5632 5629 5627 5624 5622 5621 5620 5620 5620 5620 5621 5625 5628 5631 5632 5634 5636 5638 5639
5765 5760 5756 5751 5745 5740 5734 5727 5720 5713 5705 5697 5688 5680 5673 5668 5662 5657 5653 5649 5645 5640 5635 5631 5628 5626 5624 5622 5620 5619 5619 5619 5620 5621 5624 5627 5630 5632 5634 5636 5637 5638
5763 5759 5754 5749 5744 5738 5732 5726 5719 5712 5704 5696 5688 5681 5674 5667 5662 5657 5652 5648 5644 5639 5634 5630 5627 5625 5623 5621 5620 5619 5618 5619 5620 5621 5624 5627 5630 5631 5633 5635 5636 5637
5762 5758 5753 5748 5743 5737 5732 5725 5719 5712 5705 5697 5689 5681 5673 5666 5661 5656 5651 5647 5643 5638 5633 5629 5626 5624 5622 5621 5620 5618 5618 5618 5619 5621 5624 5627 5630 5631 5633 5635 5636 5638
5761 5757 5752 5747 5742 5736 5731 5725 5719 5713 5705 5698 5690 5682 5674 5667 5661 5655 5651 5646 5642 5638 5633 5628 5626 5623 5622 5621 5620 5619 5618 5618 5619 5621 5624 5627 5630 5631 5633 5635 5637 5637
5760 5755 5751 5746 5741 5736 5731 5725 5719 5713 5706 5699 5692 5684 5675 5668 5661 5655 5651 5646 5642 5637 5632 5628 5625 5623 5621 5620 5619 5619 5618 5618 5619 5621 5624 5627 5630 5631 5633 5635 5636 5637
5758 5754 5749 5745 5740 5735 5730 5725 5719 5712 5705 5699 5692 5684 5677 5669 5662 5656 5650 5646 5642 5637 5632 5627 5625 5623 5621 5620 5619 5619 5619 5619 5620 5621 5624 5627 5630 5631 5632 5635 5636 5637
5757 5753 5748 5744 5739 5734 5729 5724 5718 5712 5705 5699 5692 5685 5678 5670 5663 5656 5650 5646 5642 5637 5632 5627 5625 5623 5622 5621 5620 5619 5619 5619 5620 5621 5624 5627 5629 5630 5632 5634 5636 5637
Wind_Speed
30 32 33 34 36 38 40 41 43 44 46 48 50 52 53 54 57 59 60 61 61 59 56 53 49 47 47 46 45 44 43 41 38 36 35 34 33 33 33 35 35 34
31 32 33 35 37 39 41 42 44 46 48 51 53 55 57 58 60 62 63 63 60 56 52 48 45 43 45 46 46 46 45 42 39 36 35 35 35 32 31 33 34 35
31 32 33 36 38 40 41 43 46 48 52 54 57 58 60 61 63 63 62 60 56 52 47 43 40 40 42 46 48 48 47 43 39 36 35 34 35 32 30 31 31 30
31 32 34 37 39 41 43 45 48 51 55 57 59 60 61 62 62 61 58 54 51 47 44 40 38 37 39 43 46 48 49 45 39 37 36 33 33 33 31 30 28 25
30 33 35 38 40 42 45 47 50 54 57 59 61 62 62 62 60 57 53 49 47 44 42 39 37 36 36 39 42 45 48 47 42 39 37 32 29 32 32 28 27 25
32 34 37 39 42 44 47 49 52 55 58 61 62 63 62 60 57 53 49 47 45 43 41 38 36 35 34 36 37 39 42 46 44 41 39 33 26 29 32 30 28 27
33 36 38 41 44 46 49 51 54 57 60 62 63 62 60 57 53 49 47 46 45 43 40 37 34 33 32 33 33 34 35 39 43 43 41 37 26 23 31 33 30 29
34 36 39 42 44 47 50 52 55 58 60 63 63 61 58 54 50 46 45 45 44 41 38 36 33 31 31 30 30 30 30 31 37 41 42 40 28 21 29 33 29 29
34 36 39 42 45 48 51 53 56 59 62 63 63 60 56 51 47 45 45 45 43 40 37 34 33 31 29 28 27 26 25 25 30 36 42 43 30 20 27 31 27 27
34 37 40 43 46 49 52 55 57 60 63 64 62 59 54 49 46 45 45 44 42 38 35 33 31 29 28 27 26 24 22 21 24 31 40 42 30 17 21 26 25 26
35 37 41 44 47 50 53 56 59 61 63 64 61 57 51 47 44 44 44 44 42 38 35 32 30 28 26 25 24 24 21 19 20 28 35 39 34 22 18 20 22 25
35 38 42 45 48 51 54 57 59 61 63 63 60 55 49 45 43 43 44 44 42 38 35 32 29 26 25 23 22 22 20 17 18 22 27 34 39 30 18 17 21 24
36 39 42 46 49 52 55 58 60 62 63 63 59 54 48 44 43 43 43 44 42 38 35 32 29 26 24 22 21 20 18 16 15 16 21 30 38 31 18 15 20 23
37 40 43 46 49 52 56 59 61 63 64 62 58 53 48 44 42 42 43 44 43 39 35 33 30 26 23 21 21 20 17 14 13 14 20 27 33 28 16 12 18 21
37 40 43 46 49 53 56 59 61 63 64 62 58 53 48 44 42 42 43 44 44 40 36 33 30 26 23 20 20 19 15 12 9 10 16 23 27 22 12 11 18 21
38 41 44 47 50 53 56 59 62 63 64 63 59 53 48 44 42 42 42 43 44 42 37 33 31 28 24 21 19 18 14 12 12 10 11 17 23 19 12 11 17 19
39 41 44 47 50 53 56 60 62 63 64 63 60 55 49 45 42 41 42 43 44 43 38 33 31 28 25 22 19 16 12 13 17 17 14 13 17 16 12 12 15 17
39 41 44 47 50 53 56 59 62 63 64 64 61 56 50 46 42 41 41 42 44 44 39 34 30 28 25 22 19 16 11 11 17 21 18 12 10 12 12 13 13 15
39 42 44 47 49 52 55 59 61 63 64 64 63 59 53 47 43 41 41 42 43 44 41 34 30 28 25 21 19 15 10 9 14 20 21 16 11 11 14 13 11 13
40 42 44 46 49 52 55 58 61 63 64 64 63 61 55 49 45 42 41 41 42 44 42 35 29 27 24 20 17 14 9 7 11 19 24 21 14 11 12 11 10 14
40 42 44 46 48 51 54 58 61 63 64 65 64 62 58 52 46 43 41 41 42 44 42 35 29 26 23 20 16 12 8 6 8 15 23 24 17 11 12 10 10 15
39 41 43 45 48 50 53 56 60 62 64 64 64 63 60 55 49 45 42 41 42 44 42 35 28 25 23 19 15 10 7 5 6 12 19 22 16 10 11 11 10 16
39 40 43 45 47 49 52 55 58 61 63 64 64 64 61 57 51 47 43 41 42 44 41 34 27 24 22 19 14 9 6 4 6 10 16 19 11 7 11 12 11 16
38 40 43 45 47 49 51 53 57 60 63 64 65 65 63 59 54 49 45 42 42 44 41 33 26 23 22 19 13 8 5 3 5 8 14 17 10 8 13 13 11 15
38 40 43 45 46 48 50 52 55 59 63 65 66 66 65 62 57 52 48 43 43 44 40 32 26 22 22 20 14 9 6 4 2 5 13 16 10 8 13 13 10 13
38 40 42 44 46 48 49 51 54 58 61 64 66 67 67 64 59 55 50 45 43 43 39 31 25 22 22 21 15 9 5 4 2 4 12 15 10 8 12 12 9 12
Wind_Direction
351 350 348 347 345 342 340 339 338 336 335 333 330 327 323 318 313 309 306 305 303 302 300 296 292 286 279 274 268 263 260 259 260 263 265 268 268 267 266 265 264 262
349 348 347 345 343 342 341 340 339 338 337 335 332 329 325 319 315 311 309 308 307 305 302 298 291 283 276 270 264 258 254 253 254 256 258 262 263 261 262 262 261 261
347 346 345 344 343 343 343 342 341 341 340 338 335 331 325 320 316 313 312 311 310 309 306 301 293 282 273 268 263 257 251 248 249 249 248 254 258 256 258 259 261 261
346 345 345 345 345 345 344 344 344 343 342 340 336 331 326 321 318 317 316 315 314 313 310 305 297 287 277 270 264 259 253 247 244 242 240 246 255 255 254 255 256 258
346 346 346 346 346 346 346 345 345 345 343 341 337 332 327 324 322 321 320 319 317 315 312 308 302 294 285 278 271 264 258 250 242 238 236 241 253 254 252 253 252 253
347 347 347 348 348 348 347 346 346 345 344 341 337 333 329 327 325 324 324 323 320 317 314 310 304 299 293 287 281 273 264 255 244 237 235 239 251 255 250 248 249 250
348 348 349 349 349 348 347 347 347 346 345 342 338 335 331 329 327 327 327 325 322 319 316 312 307 302 297 292 288 281 273 262 249 239 235 235 244 254 248 243 245 247
348 349 349 349 349 349 348 348 348 348 346 344 340 336 333 331 330 330 330 328 325 322 319 316 311 305 300 295 292 286 280 271 254 241 235 234 238 249 247 243 242 241
348 348 349 349 349 350 350 350 350 349 348 346 342 338 335 333 333 333 333 332 330 326 322 319 313 309 304 299 294 289 285 277 259 240 232 234 237 247 249 245 241 237
348 348 349 349 350 351 351 351 351 351 350 347 343 340 337 335 335 336 337 336 333 329 326 321 315 311 309 302 297 294 289 281 259 238 233 234 233 242 251 242 235 233
348 349 350 351 351 352 352 352 353 353 351 349 345 341 338 336 336 338 340 340 337 333 330 325 319 314 311 306 299 295 292 282 254 236 236 236 230 238 258 247 233 232
348 349 351 352 352 353 353 354 354 355 353 350 346 342 339 337 337 339 342 344 341 337 334 329 324 318 314 309 302 296 292 278 251 238 244 242 234 238 259 254 237 230
349 350 351 352 353 353 354 355 356 356 355 351 347 344 340 338 339 340 343 346 344 340 336 333 329 323 318 313 306 302 291 271 245 234 246 247 238 240 256 254 239 231
350 351 352 353 353 354 355 356 358 358 356 353 349 345 342 339 339 342 345 348 347 343 339 336 334 328 324 318 312 309 294 266 240 232 247 249 240 239 250 243 233 232
350 351 352 353 353 354 356 357 359 360 358 354 351 347 344 341 341 343 346 349 349 346 341 338 337 333 328 323 319 315 295 256 220 219 243 247 242 243 256 239 228 232
350 351 352 353 354 355 356 358 0 1 360 356 353 349 346 343 342 344 347 349 350 348 343 340 339 337 333 328 326 321 297 247 213 207 233 244 244 251 264 243 229 232
351 352 353 354 355 356 357 359 1 2 1 358 355 352 349 346 343 344 347 349 351 350 346 341 341 340 338 334 330 327 305 254 228 224 233 240 242 247 251 234 223 226
351 352 354 354 355 357 358 0 2 4 3 0 357 354 351 348 345 345 347 349 351 351 348 343 341 341 340 338 334 330 312 264 239 231 227 223 231 244 244 234 225 222
352 353 354 355 356 357 359 1 3 5 4 3 359 356 353 351 348 346 347 349 351 351 349 345 343 343 343 340 338 337 320 276 251 238 226 214 218 234 235 236 234 224
353 354 354 355 356 358 359 1 4 5 6 5 2 359 356 353 351 348 348 349 351 351 350 347 344 344 345 343 342 342 332 296 262 241 225 218 222 223 219 230 236 220
353 354 354 355 357 358 360 2 4 6 7 6 4 1 358 356 353 351 349 350 351 352 351 349 346 346 347 348 348 347 344 324 278 246 228 224 232 227 206 214 228 218
353 354 354 355 357 359 1 2 4 6 7 7 5 3 1 358 356 353 351 351 352 352 352 350 349 348 349 351 352 351 355 348 291 253 230 226 235 228 203 206 223 217
353 353 354 356 357 359 1 2 4 6 8 9 7 6 3 0 358 356 354 353 353 353 354 353 351 350 351 354 355 354 1 352 295 256 227 222 229 216 202 210 222 215
352 353 355 356 357 359 0 2 4 6 8 9 10 9 6 3 1 358 357 356 355 355 356 356 355 354 355 358 359 356 8 5 304 258 222 217 218 197 197 207 220 217
352 354 355 356 357 358 359 1 3 5 7 9 10 11 9 6 3 1 0 359 358 358 359 359 359 358 358 1 3 358 11 40 336 255 220 213 212 193 192 201 218 222
353 354 355 356 356 357 359 1 3 5 7 8 10 11 12 10 7 4 3 2 1 1 3 4 4 2 360 2 5 2 14 64 89 226 216 212 210 190 184 192 213 225